"Pseudo-MPEC" for A11Flgg

Created 2026 Aug 9 14:35:04 UT using Find_Orb

Click here for an explanation of pseudo-MPECs

 
 Astrometry: 
     A11Flgg*0C2026 08 03.97067321 17 20.789-12 34 15.92   ~847K 17.08oVNEOCPM22
     A11Flgg 0C2026 08 03.97382821 17 22.018-12 34 01.13   ~847K 17.04oVNEOCPM22
     A11Flgg 0C2026 08 04.00730621 17 37.188-12 30 51.12   ~847K 16.90oVNEOCPM22
     A11Flgg 0C2026 08 04.01271421 17 40.116-12 30 13.90   ~847K 17.02oVNEOCPM22

Station data:
(M22) ATLAS South Africa, Sutherland  (S32.380156 E20.810590)  South Africa.
   Observers L. Denneau, R. Siverd, J. Tonry, H. Weiland. Measurers L.
   Denneau, N. Erasmus, A. Fitzsimmons, J. Robinson, R. Siverd, J. Tonry, H.
   Weiland. 0.5-m f/2.0 Schmidt + CCD.

Orbital elements:  A11Flgg
   Perigee 2026 Aug 4.376885 +/- 0.467 TT =  9:02:42.8 (JD 2461256.876885)
Epoch 2026 Aug  4.0 TT = JDT 2461256.5                           AutoNEOCP
q 14744.07287 +/- 2859              (J2000 equator)
H   30.07 G 0.15                    Peri.   21.276105 +/- 23
                                    Node    37.729899 +/- 33
e   4.47268155 +/- 21.5             Incl.   13.184165 +/- 0.9
From 4 observations 2026 Aug. 3-4 (60.5 min); mean residual 0".05
Residuals in arcseconds: 
260803 M22  .02+  .02-    260804 M22  .06+  .07-    
260803 M22  .03-  .03+    260804 M22  .05-  .06+    

Ephemerides (geocentric):
Date (UTC) HH   RA             Dec           delta  r     elong  mag " sig PA
---- --------  ------------   ------------  ------ ------ -----  --- --------
2026 08 09 15  10 49 21.842   +10 54 26.17  .02958 .98665  23.1 32?? 149d  84
2026 08 09 16  10 49 22.047   +10 54 26.01  .02982 .98642  23.1 32?? 149d  84
2026 08 09 17  10 49 22.244   +10 54 25.88  .03005 .98619  23.0 32?? 149d  84
2026 08 09 18  10 49 22.431   +10 54 25.77  .03029 .98596  23.0 32?? 149d  84
2026 08 09 19  10 49 22.608   +10 54 25.68  .03052 .98573  22.9 32?? 149d  84
2026 08 09 20  10 49 22.777   +10 54 25.61  .03076 .98550  22.9 32?? 149d  84
2026 08 09 21  10 49 22.937   +10 54 25.57  .03099 .98527  22.9 32?? 149d  84
2026 08 09 22  10 49 23.088   +10 54 25.54  .03123 .98504  22.8 32?? 149d  84
2026 08 09 23  10 49 23.230   +10 54 25.54  .03146 .98481  22.8 32?? 149d  84
2026 08 10 00  10 49 23.364   +10 54 25.56  .03170 .98458  22.7 32?? 149d  84
2026 08 10 01  10 49 23.489   +10 54 25.60  .03193 .98435  22.7 32?? 149d  84
2026 08 10 02  10 49 23.606   +10 54 25.66  .03217 .98412  22.7 32?? 149d  84
2026 08 10 03  10 49 23.715   +10 54 25.75  .03240 .98389  22.6 32?? 149d  84
2026 08 10 04  10 49 23.817   +10 54 25.85  .03264 .98366  22.6 32?? 149d  84
2026 08 10 05  10 49 23.910   +10 54 25.97  .03287 .98343  22.5 32?? 149d  84
2026 08 10 06  10 49 23.995   +10 54 26.12  .03311 .98320  22.5 32?? 149d  84
2026 08 10 07  10 49 24.073   +10 54 26.28  .03334 .98296  22.5 32?? 149d  84
2026 08 10 08  10 49 24.144   +10 54 26.46  .03358 .98273  22.4 32?? 149d  84
2026 08 10 09  10 49 24.206   +10 54 26.66  .03381 .98250  22.4 32?? 149d  84
2026 08 10 10  10 49 24.262   +10 54 26.88  .03405 .98227  22.4 32?? 149d  84
2026 08 10 11  10 49 24.310   +10 54 27.12  .03428 .98204  22.3 32?? 149d  84
2026 08 10 12  10 49 24.351   +10 54 27.38  .03452 .98180  22.3 32?? 149d  84
2026 08 10 13  10 49 24.386   +10 54 27.66  .03475 .98157  22.2 32?? 149d  84
2026 08 10 14  10 49 24.413   +10 54 27.96  .03499 .98134  22.2 32?? 149d  84
2026 08 10 15  10 49 24.433   +10 54 28.27  .03523 .98111  22.2 32?? 149d  84
2026 08 10 16  10 49 24.447   +10 54 28.60  .03546 .98087  22.1 32?? 149d  84
2026 08 10 17  10 49 24.453   +10 54 28.95  .03570 .98064  22.1 32?? 149d  84
2026 08 10 18  10 49 24.454   +10 54 29.32  .03593 .98041  22.0 32?? 149d  84
2026 08 10 19  10 49 24.447   +10 54 29.71  .03617 .98017  22.0 32?? 149d  84
2026 08 10 20  10 49 24.435   +10 54 30.11  .03640 .97994  22.0 32?? 149d  84
2026 08 10 21  10 49 24.415   +10 54 30.53  .03664 .97971  21.9 33?? 149d  84
2026 08 10 22  10 49 24.390   +10 54 30.97  .03687 .97947  21.9 33?? 149d  84
2026 08 10 23  10 49 24.358   +10 54 31.42  .03711 .97924  21.8 33?? 149d  84
2026 08 11 00  10 49 24.320   +10 54 31.89  .03734 .97900  21.8 33?? 149d  84
2026 08 11 01  10 49 24.276   +10 54 32.38  .03758 .97877  21.8 33?? 149d  84
2026 08 11 02  10 49 24.226   +10 54 32.89  .03782 .97854  21.7 33?? 149d  84
2026 08 11 03  10 49 24.170   +10 54 33.41  .03805 .97830  21.7 33?? 149d  84
2026 08 11 04  10 49 24.109   +10 54 33.95  .03829 .97807  21.6 33?? 149d  84
2026 08 11 05  10 49 24.041   +10 54 34.50  .03852 .97783  21.6 33?? 149d  84
2026 08 11 06  10 49 23.967   +10 54 35.07  .03876 .97760  21.6 33?? 149d  84
2026 08 11 07  10 49 23.888   +10 54 35.66  .03899 .97736  21.5 33?? 149d  84
2026 08 11 08  10 49 23.803   +10 54 36.26  .03923 .97713  21.5 33?? 149d  84
2026 08 11 09  10 49 23.713   +10 54 36.88  .03947 .97689  21.4 33?? 149d  84
2026 08 11 10  10 49 23.617   +10 54 37.52  .03970 .97666  21.4 33?? 149d  84
2026 08 11 11  10 49 23.515   +10 54 38.17  .03994 .97642  21.4 33?? 149d  84
2026 08 11 12  10 49 23.408   +10 54 38.83  .04017 .97618  21.3 33?? 149d  84
2026 08 11 13  10 49 23.296   +10 54 39.52  .04041 .97595  21.3 33?? 149d  84
2026 08 11 14  10 49 23.178   +10 54 40.21  .04065 .97571  21.2 33?? 149d  84